Location: Asbach-B�umenheim
(48.6948°N, 10.8279°E)
Time: 16:07:43
(UTC+00:00)

Daily predictions for brighter satellites

Satellite Brightness Start Highest point End
(mag) Time Altitude Azimuth Time Altitude Azimuth Time Altitude Azimuth
Cosmos 1238 Rocket 4.3 17:08:21 10° SSE 17:14:16 48° E 17:20:36 10° NNE
YAOGAN 6 2.7 17:12:23 10° S 17:15:54 79° WSW 17:19:25 10° NNW
Cosmos 1606 4.3 17:12:48 10° NNW 17:16:21 40° W 17:19:54 10° SSW
Cosmos 1992 Rocket 4.1 17:13:01 10° S 17:18:07 55° ESE 17:23:15 10° NNE
Cosmos 1633 Rocket 4.3 17:15:59 10° SE 17:19:10 20° E 17:22:21 10° NE
STARLINK-60 3.6 17:18:12 10° WNW 17:21:23 43° N 17:24:34 10° E
Cosmos 2297 3.9 17:16:54 10° S 17:22:20 51° ESE 17:27:47 10° NE
Cosmos 2173 Rocket 4.0 17:19:38 10° S 17:25:59 77° E 17:32:23 10° NNE
CZ-2D R/B 3.5 17:28:03 10° SSE 17:31:49 50° ENE 17:35:36 10° N
Abrixas rocket 4.1 17:30:56 10° W 17:33:23 23° SSW 17:35:49 10° SSE
Cosmos 1354 Rocket 4.1 17:29:10 10° NNW 17:34:31 85° WSW 17:39:47 10° SSE
Cosmos 1812 3.4 17:32:28 10° N 17:36:00 32° ENE 17:39:30 10° SE
Cosmos 2369 Rocket 3.3 17:33:25 10° SSE 17:37:38 22° E 17:41:54 10° NE
Okean-O 3.6 17:33:21 10° S 17:37:41 52° W 17:42:02 10° NNW
HJ-1C 4.3 17:35:43 10° SE 17:38:33 27° ENE 17:41:24 10° N
STARLINK-80 3.5 17:35:28 10° WSW 17:39:16 75° NNW 17:42:36 13° ENE
H-2A R/B 3.1 17:35:59 10° ESE 17:40:22 26° ENE 17:44:49 10° N
SL-27 R/B 3.2 17:38:47 10° N 17:41:48 29° ENE 17:44:32 11° ESE
Cosmos 2100 Rocket 4.2 17:36:07 10° SSW 17:42:29 79° W 17:48:50 10° N
CZ-4 R/B 1.7 17:39:00 10° S 17:43:13 77° WSW 17:47:26 10° NNW
Cosmos 2082 Rocket 3.6 17:38:03 10° NW 17:43:21 43° WSW 17:48:38 10° S
CZ-2C R/B 4.3 17:40:00 10° ESE 17:44:43 26° ENE 17:49:23 10° N
ADEOS Rocket 3.8 17:37:19 10° NNE 17:44:49 51° E 17:52:18 10° S
STARLINK-43 3.9 17:43:08 10° W 17:46:46 49° NNW 17:49:35 15° ENE
STARLINK-64 4.1 17:43:58 10° SSW 17:47:15 35° SE 17:49:21 18° E
Cosmos 44 4.0 17:43:56 10° NNW 17:47:51 30° NE 17:50:32 17° E
USA 234 3.9 17:42:52 12° ENE 17:48:29 44° N 17:54:37 10° WNW
Cosmos 1939 Rocket 2.9 17:44:24 10° SSE 17:48:31 79° ENE 17:52:41 10° N
STARLINK-68 4.4 17:46:47 10° SSW 17:50:24 32° SE 17:52:38 19° E
Lacrosse 5 rocket 2.5 17:46:39 10° W 17:50:53 42° NNW 17:54:58 12° NE
Ariane Rocket 3.4 17:46:10 10° SE 17:50:56 42° ENE 17:55:44 10° N
Cosmos 1607 4.0 17:44:39 10° NW 17:50:59 90° NNE 17:57:22 10° SE
Meteor 1-27 Rocket 3.8 17:45:38 10° N 17:51:04 54° ENE 17:56:31 10° SSE
USA 229 DEB 4.0 17:45:17 10° S 17:51:23 44° ESE 17:57:47 10° NE
USA 229 4.0 17:45:25 10° S 17:51:30 43° ESE 17:57:53 10° NE
STARLINK-63 4.4 17:48:23 10° SSW 17:51:59 32° SE 17:54:07 19° E
USA 116 3.6 17:48:58 10° NNE 17:52:39 69° ESE 17:56:50 10° S
STARLINK-35 4.5 17:49:57 10° SSW 17:53:33 32° SE 17:55:34 20° E
Cosmos 1459 Rocket 4.3 17:48:35 10° SSW 17:54:35 69° W 18:00:40 10° N
STARLINK-51 4.4 17:51:37 10° SSW 17:55:13 33° SE 17:57:12 21° E
STARLINK-30 4.4 17:53:12 10° SSW 17:56:50 33° SE 17:58:46 21° E
Cosmos 2061 Rocket 4.1 17:51:57 10° S 17:58:24 88° WNW 18:04:49 10° N
STARLINK-72 4.3 17:54:49 10° SSW 17:58:29 34° SE 18:00:21 22° E
NOSS 3-1 (A) 4.1 17:54:09 10° S 17:58:48 28° ESE 18:02:26 16° ENE
STARLINK-50 4.3 17:56:27 10° SSW 18:00:07 35° SE 18:01:56 23° E
CRYOSAT 2 4.5 17:56:26 10° SSE 18:01:11 54° E 18:05:59 10° N
COSMO-SKYMED 1 3.4 17:57:19 10° N 18:01:34 54° WNW 18:05:48 10° SSW
STARLINK-59 4.2 17:58:07 10° SSW 18:01:50 37° SE 18:03:39 24° E
Cosmos 1470 Rocket 4.3 17:58:05 10° SSE 18:01:51 30° E 18:05:41 10° NNE
Orbus 7S? 4.2 17:53:06 10° SW 18:02:16 76° SE 18:05:13 19° ENE
Cosmos 1805 Rocket 3.9 17:58:09 10° SSW 18:02:31 68° WNW 18:06:53 10° N
STARLINK-56 4.2 17:59:41 10° SSW 18:03:24 37° SE 18:05:06 25° E
Sich 1 3.0 17:59:14 10° S 18:03:32 89° WNW 18:07:50 10° N
FREGAT/IRIS 4.4 18:05:21 16° NNE 18:05:21 16° NNE 18:06:11 10° NNE
STARLINK-73 4.2 18:01:20 10° SSW 18:05:03 38° SE 18:06:43 26° E
Cosmos 1725 Rocket 3.9 18:00:09 10° S 18:06:20 84° E 18:12:33 10° N
Cosmos 1862 Rocket 3.7 18:02:24 10° N 18:06:37 50° ENE 18:10:51 10° SSE
STARLINK-38 4.1 18:02:58 10° SSW 18:06:43 39° SE 18:08:19 27° E
STARLINK-65 4.1 18:04:34 10° SSW 18:08:20 40° SE 18:09:53 28° E
IRS-1A Rocket 4.3 18:03:33 10° SE 18:08:56 57° ENE 18:14:20 10° N
Cosmos 1707 Rocket 3.8 18:05:25 10° NNW 18:09:51 72° W 18:14:17 10° S
STARLINK-53 4.0 18:06:16 10° SW 18:10:05 42° SE 18:11:36 29° E
CSL-04 Rocket 4.2 18:07:46 10° S 18:13:16 64° WSW 18:18:45 10° NNW
Cosmos 2285 Rocket 4.2 18:09:06 10° NNW 18:15:18 52° ENE 18:20:38 14° SE
STARLINK-61 3.4 18:11:56 10° SW 18:15:49 70° SSE 18:17:25 33° ENE
Cosmos 2297 Rocket 4.3 18:15:29 10° N 18:17:05 11° NNE 18:18:31 10° NE
FALCON 9 DEB 3.4 18:13:50 10° WNW 18:17:14 53° NNE 18:18:11 39° ENE
Tsikada Rocket 4.2 18:12:06 10° NNW 18:18:28 79° W 18:24:52 10° S
ARGOS 3.5 18:13:54 13° SE 18:18:28 44° ENE 18:23:36 10° N
STARLINK-26 3.3 18:16:47 10° WSW 18:20:13 66° NNW 18:21:28 36° NE
CENTAUR R/B 4.3 18:14:52 10° NW 18:20:42 26° N 18:26:05 14° NE
SPOT 3 Rocket 4.2 18:19:01 26° ESE 18:20:54 34° ENE 18:25:34 10° N
Cosmos 2278 Rocket 4.2 18:17:18 10° W 18:21:58 26° NW 18:26:41 10° NNE
Cosmos 1703 Rocket 4.4 18:18:40 10° N 18:22:21 29° ENE 18:22:21 29° ENE
STARLINK-33 2.9 18:20:14 10° WSW 18:23:30 76° SSE 18:24:07 54° E
STARLINK-48 3.7 18:19:48 10° W 18:23:40 62° NNW 18:25:15 33° NE
Cosmos 1633 4.5 18:20:47 10° SW 18:24:00 31° WNW 18:27:17 10° N
STARLINK-66 2.9 18:21:59 10° WSW 18:25:16 79° SSE 18:25:50 57° E
STARLINK-29 3.4 18:22:54 10° WNW 18:26:16 53° NNE 18:26:49 47° NE
STARLINK-55 2.8 18:23:18 10° WSW 18:26:35 82° SSE 18:27:06 59° ENE
ATLAS 3B R/B 4.3 18:22:05 10° NW 18:27:11 22° N 18:31:55 11° NE
STARLINK-28 2.9 18:25:01 10° WSW 18:28:17 88° SSE 18:28:47 62° ENE
STARLINK-75 3.0 18:25:04 10° WSW 18:28:31 77° SSE 18:29:06 57° E
STARLINK-22 3.0 18:29:58 10° SW 18:33:23 69° SSE 18:33:37 65° ESE
STARLINK-41 3.0 18:31:23 10° WSW 18:34:49 75° SSE 18:35:03 70° ESE
Cosmos 2227 Rocket 4.2 18:32:47 10° N 18:35:02 12° NNE 18:35:44 12° NE
STARLINK-52 3.3 18:32:31 10° WNW 18:35:52 55° NNE 18:35:59 54° NNE
SJ-6B 2.9 18:40:06 49° NE 18:40:06 49° NE 18:43:20 10° N
STARLINK-1014 4.3 18:38:11 10° SSW 18:40:27 31° S 18:40:27 31° S
STARLINK-24 3.4 18:37:23 10° SW 18:41:23 67° SSE 18:41:46 62° ESE
ARGOS Delta rocket 4.0 18:42:01 43° ENE 18:42:01 43° ENE 18:45:54 10° N
Okean 1-7 4.0 18:37:44 10° N 18:40:27 30° NE 18:40:27 30° NE
STARLINK-42 3.0 18:40:14 10° WSW 18:43:19 78° WSW 18:43:19 78° WSW
Cosmos 921 Rocket 3.1 18:39:29 10° SSW 18:43:59 81° WNW 18:48:32 10° NNE
SJ 16-02 2.9 18:41:02 10° N 18:43:28 22° NNE 18:43:28 22° NNE
SL-4 R/B 4.1 18:41:29 10° W 18:45:26 27° SW 18:48:20 14° S
SL-08 RB Rocket 3.8 18:46:13 50° ENE 18:46:14 50° ENE 18:50:36 10° N
STARLINK-81 3.4 18:45:26 10° SW 18:49:26 70° SSE 18:49:26 70° SSE
Lacrosse 4 Rocket 3.0 18:45:39 10° WSW 18:49:32 34° NW 18:53:11 12° NNE
Cosmos 1943 Rocket 2.1 18:45:00 10° SSW 18:50:35 88° WNW 18:56:09 10° NNE
STARLINK-54 3.4 18:47:15 10° WSW 18:51:16 76° SSE 18:51:17 76° SSE
STARLINK-58 3.3 18:47:59 10° WSW 18:51:10 69° SW 18:51:10 69° SW
STARLINK-77 3.4 18:48:43 10° SW 18:52:37 73° SSE 18:52:37 73° SSE
STARLINK-62 3.4 18:49:41 10° WSW 18:52:50 68° WSW 18:52:50 68° WSW
NOSS 3-1 (C) 3.3 18:48:00 10° SW 18:53:35 87° NW 18:57:56 22° NE
Cosmos 1898 Rocket 4.1 18:49:02 10° N 18:53:26 37° NE 18:53:26 37° NE
STARLINK-25 3.5 18:50:23 10° SW 18:54:13 73° S 18:54:13 73° S
STARLINK-34 3.5 18:51:16 10° WSW 18:54:20 65° WSW 18:54:20 65° WSW
USA 267 3.7 18:54:45 36° SE 18:55:04 37° SE 19:01:00 10° SSW
STARLINK-71 3.4 18:52:13 10° WSW 18:56:04 79° SSW 18:56:04 79° SSW
Cosmos 724 4.2 18:50:30 10° NW 18:56:20 89° NE 18:58:32 40° SE
Cosmos 1633 Rocket 4.2 18:52:30 10° SSW 18:56:39 44° WNW 19:00:49 10° N
Meteor 1-22 4.5 18:51:52 10° S 18:57:07 61° E 19:02:24 10° NNE
STARLINK-79 3.5 18:53:41 10° WSW 18:57:24 72° SSW 18:57:24 72° SSW
STARLINK-60 3.9 18:54:44 10° WNW 18:57:22 48° W 18:57:22 48° W
STARLINK-78 3.6 18:55:19 10° WSW 18:58:59 71° SSW 18:58:59 71° SSW
Cosmos 1933 Rocket 3.4 18:55:45 10° S 19:00:10 85° E 19:04:36 10° N
Cosmos 2233 Rocket 4.4 18:54:14 10° SSW 19:00:18 62° WNW 19:06:28 10° N
STARLINK-57 3.6 18:57:04 10° WSW 19:00:42 72° SW 19:00:42 72° SW
STARLINK-49 3.7 18:58:37 10° WSW 19:02:10 67° SW 19:02:10 67° SW
Cosmos 1340 3.0 18:59:33 10° SSW 19:02:45 58° SW 19:02:45 58° SW
STARLINK-27 3.8 19:00:18 10° WSW 19:03:47 65° SW 19:03:47 65° SW
STARLINK-74 3.8 19:01:56 10° WSW 19:05:21 63° SW 19:05:21 63° SW
STARLINK-39 3.9 19:03:35 10° WSW 19:06:57 61° WSW 19:06:57 61° WSW
STARLINK-31 4.0 19:05:14 10° WSW 19:08:32 59° WSW 19:08:32 59° WSW
Cosmos 1346 Rocket 4.5 19:06:03 10° SSW 19:07:42 24° SSW 19:07:42 24° SSW
STARLINK-69 4.0 19:07:05 10° WSW 19:10:23 58° WSW 19:10:23 58° WSW
Cosmos 1072 Rocket 4.4 19:05:25 10° S 19:11:47 76° E 19:18:08 10° NNE
STARLINK-21 4.1 19:08:35 10° WSW 19:11:46 54° WSW 19:11:46 54° WSW
STARLINK-45 4.2 19:10:26 10° WSW 19:13:36 54° W 19:13:36 54° W
STARLINK-70 4.3 19:12:01 10° WSW 19:15:06 51° WSW 19:15:06 51° WSW
Resurs 01 Rocket 3.2 19:19:38 25° N 19:19:38 25° N 19:21:35 10° N
STARLINK-76 4.4 19:13:32 10° WSW 19:16:31 48° WSW 19:16:31 48° WSW
STARLINK-23 4.5 19:15:12 10° WSW 19:18:07 46° WSW 19:18:07 46° WSW
H-2A R/B 2.7 19:14:14 10° S 19:19:26 56° W 19:24:48 10° NNW
Cosmos 1833 4.3 19:13:49 10° NNW 19:19:36 78° WSW 19:20:55 54° S
Cosmos 2242 Rocket 4.4 19:15:43 10° NNW 19:20:06 51° W 19:22:04 30° SSW
Cosmos 2369 Rocket 2.4 19:15:30 10° SW 19:21:08 68° WNW 19:25:16 19° NNE
Meteor 1-18 Rocket 4.2 19:15:11 10° N 19:21:11 85° E 19:22:12 63° SSE
Cosmos 1932 4.5 19:14:57 10° NW 19:21:34 86° SW 19:23:00 58° SSE
CZ-2C R/B 3.7 19:19:27 16° S 19:24:09 63° W 19:29:54 10° NNW
Cosmos 44 3.9 19:24:58 10° NW 19:29:00 46° WSW 19:29:00 46° WSW
Cosmos 1513 Rocket 4.3 19:23:30 10° S 19:29:34 89° W 19:35:46 10° N
Lacrosse 5 rocket 3.1 19:27:02 10° WNW 19:30:37 28° N 19:30:37 28° N
USA 234 3.2 19:30:12 63° ENE 19:31:02 70° NNE 19:37:32 10° NW
Meteor 2-11 Rocket 4.3 19:24:55 10° S 19:31:02 89° ESE 19:37:10 10° N
Cosmos 2263 4.4 19:31:11 10° SW 19:36:58 71° WNW 19:38:38 47° N
Cosmos 1891 Rocket 4.5 19:31:22 10° SSW 19:37:31 78° W 19:43:51 10° N
USA 229 DEB 4.2 19:35:47 10° WSW 19:42:14 54° NW 19:45:48 28° NNE
USA 229 4.2 19:35:53 10° WSW 19:42:21 54° NW 19:45:51 28° NNE
NOSS 3-1 (A) 3.7 19:43:30 10° SW 19:49:07 64° NW 19:49:58 58° N
Cosmos 2297 Rocket 3.9 19:57:45 10° NNW 20:00:20 24° N 20:00:20 24° N
Timation 2 Rocket 4.3 19:59:13 10° NNW 20:05:28 73° WNW 20:05:28 73° WNW
Nadezhda 4 Rocket 4.4 20:02:14 10° NNW 20:08:18 60° W 20:08:18 60° W
CENTAUR R/B 3.8 20:06:32 10° NW 20:13:16 39° NNE 20:13:16 39° NNE
ATLAS 3B R/B 4.0 20:14:21 10° NW 20:19:10 28° N 20:19:10 28° N
Cosmos 2227 Rocket 4.1 20:15:23 10° NNW 20:17:34 22° N 20:17:34 22° N
SJ 16-02 4.0 20:19:22 10° NW 20:20:29 17° NW 20:20:29 17° NW
Cosmos 1943 Rocket 4.4 20:31:02 10° W 20:35:09 21° NW 20:37:46 15° N
